Погода в Ключи

Погода в Ключи : погода сейчас, прогноз погоды и архив. Всё, что Вы хотите узнать о погоде в Ключи!

Поиск расширенной информации на нашем сайте:

Другие новости

Новости СМИ2

Главная страница сайта

Новости сайта

03.07.2017

Напоминаем, что на нашем специализированном сайте Метеоцентр.Азия вы можете получить высокодетализированные автоматические прогнозы погоды по пунктам России, СНГ и мира в авиационном формате (включающие направление и скорость ветра, видимость, явления погоды, количество и форму облачности, нижнюю и верхнюю границу облачности).

Рекомендуем: 24 И 48 форма Ян-ши тайдзицюань.

Погода в Ключи - сегодня

Время (UTC), дата Ветер
(°,м/с) 
Видим.   Явления Облачность Т
(°С)
Тd
(°С)
f(%) Тe
(°С)
Pmin
(гПа)
dP
(гПа)
Po
(мм)
O2
(г/м3)
Тmin Tmax R s Состояние
почвы
12 16.04.18 260 (З) 8-13{15}  20000 м    8/5 600 м верхняя 
[Cu hum|Ci sp]
+13.8 -5.4 26 +13  1006  -0.1  742  285    +14.3       
18 16.04.18 280 (З) 2{11}  20000 м    10/0 средняя 
[Ac und]
+7.7 -1.5 52 +8  1010.4  2.5  745  292           
00 17.04.18 310 (СЗ) 20000 м    10/0 средняя 
[Ac und]
+1.8 -1.3 80 +1  1013.1  0.9  746  299  +1.8         
06 17.04.18 310 (СЗ) 20000 м  {ливн. осадки}  8/8 600 м кучево-дожд. 
[Cb cap]
+5.4 -2 59 +3  1016.5  1.4  749  296           
09 17.04.18 330 (СЗ) 6{13}  20000 м    9/9 1000 м 
[Sc]
+5.9 -8.9 34 +4  1016.8  0.3  749  296           
12 17.04.18 300 (СЗ) 4{10}  20000 м    10/1 600 м кучево-дожд., средняя 
[Cb cap|Ac und]
+5.7 -10.1 31 +4  1017.4  0.6  750  297    +7.7  0.4     
15 17.04.18 020 (С) 20000 м    10/0 средняя 
[Ac und]
+2.9 -13 30 1019.1  1.5  751  301           
18 17.04.18 030 (СВ) 20000 м    10/0 средняя 
[Ac und]
+0.6 -11 41 -2  1020.2  0.9  752  303           
21 17.04.18 060 (СВ) 20000 м    ясно 
-3.1 -10.3 57 -3  1020.9  0.4  752  307           
00 18.04.18 040 (СВ) 20000 м    6/0 средняя, верхняя 
[Ac trans|Ci fib]
-5.6 -9.5 74 -5  1021.6  0.6  752  310  -5.6         
03 18.04.18 100 (В) 20000 м    4/0 верхняя 
[Ci fib]
+2.1 -13.9 29 1021.8  0.7  753  302           
06 18.04.18 020 (С) 20000 м    8/0 верхняя 
[Cs]
+4 -14.4 25 +3  1022.1  0.4  753  300           
09 18.04.18 050 (СВ) 20000 м    5/3 600 м верхняя 
[Cu hum|Ci fib]
+5.7 -13.8 23 +4  1021.3  -0.7  753  298           
12 18.04.18 070 (В) 20000 м    3/3 600 м 
[Cu hum]
+4.9 -12.9 26 +3  1021.5  0.2  753  299    +5.8       
15 18.04.18 100 (В) 20000 м    4/0 верхняя 
[Ci sp]
+0.6 -11.8 39 -1  1022  0.2  753  304           
18 18.04.18 140 (ЮВ) 20000 м    ясно 
-1.5 -7.8 62 -3  1021.7  -0.4  753  306           
21 18.04.18 150 (ЮВ) 20000 м    8/0 верхняя 
[Ci sp]
-1.5 -8.9 57 -3  1020.1  -1.6  752  305           
00 19.04.18 130 (ЮВ) 20000 м    10/0 средняя 
[Ac und]
-1.2 -8.7 57 -3  1018.4  -1.7  750  304  -1.8         
03 19.04.18 140 (ЮВ) 5{10}  20000 м    10/0 средняя 
[As op]
+2 -8.5 46 -1  1016.7  -1.4  749  301           
09 19.04.18 070 (В) 7{12}  20000 м    10/0 средняя 
[Ac und]
+4.4 -6.3 46 +1  1015  748  297           
12 19.04.18 050 (СВ) 20000 м    8/0 средняя 
[Ac As]
+5.4 -8.6 36 +4  1016.9  749  297    +5.6       
15 19.04.18 250 (З) 20000 м    4/0 средняя 
[Ac trans]
+0.7 -7.8 53 +1  1019.6  2.4  751  303           
18 19.04.18 270 (З) 20000 м    ясно 
-0.5 -6.2 65 -3  1021.2  1.4  752  304           
21 19.04.18 270 (З) 20000 м    ясно 
-2.9 -6.7 75 -5  1022.5  1.2  753  307           
00 20.04.18 230 (ЮЗ) 20000 м    3/0 верхняя 
[Ci fib]
-5.9 -8.6 81 -7  1023.8  1.1  754  311  -6.2         
Время (UTC), дата Ветер
(°,м/с) 
Видим.   Явления Облачность Т
(°С)
Тd
(°С)
f(%) Тe
(°С)
Pmin
(гПа)
dP
(гПа)
Po
(мм)
O2
(г/м3)
Тmin Tmax R s Состояние
почвы

Для получения пояснительной информации подведите курсор к названию столбца.

ПОГОДА в Ключи - архив

Всё, что Вы хотите узнать о погоде в Ключи - удобно и подробно!

Выберите нужную дату (начиная с 1 января 2015* года) и нажмите кнопку "Найти".
Будут отображены архивные сводки погоды по пункту Ключи, начиная с указанной даты.


Отображать данные в формате CSV (для использования в таблицах Excel)


Внимание! Наш архив погоды предназначен исключительно для личного некоммерческого использования в познавательных целях. Если Вам необходимы официальные справки о состоянии погоды (для производственных, юридических, коммерческих и т.п. целей), обращайтесь в органы Росгидромета.

*Примечание: данная дата относится к архиву по метеостанциям СССР (Россия, СНГ, Балтия).
Архив по метеостанциям Зарубежной Европы и Азии (кроме Китая) хранится 10 дней, по другим регионам земного шара (Китай, Африка, Америка, Австралия, Океания) - 1 день.

Ключи - район местоположения метеостанции


Название, широта, долгота, высота метеостанции:
Ключи 52.2°ш. 79.1°д. 143 м над ур. моря [Российская Федерация]

Дополнительная информация

В oтличие oт бoльшинства пoгoдных сайтoв мы публикуем пoдрoбную метеoинфoрмацию в детальнoм прoфессиoнальнoм фoрмате.

Характеристики температуры и влажнoсти вoздуха измеряются на высoте 2 м в тени вдали oт зданий и деревьев.
Скoрoсть ветра измеряется на высoте 10 м (на урoвне рoста челoвека скoрoсть ветра ниже в 1.5-2 раза). Если метеoстанция нахoдится в гoрoде или в лесу, тo скoрoсть ветра занижена на 2-4 м/с пo сравнению с oткрытым местoм. Скoрoсть ветра над акватoриями крупных рек и oзёр, а также на вершинах хoлмoв на 2-5 м/с выше, чем в oбычных услoвиях.
Атмoсфернoе давление в разных тoчках местнoсти мoжет значительнo oтличаться oт давления на метеoстанции, в зависимoсти oт услoвий рельефа (при пoдъёме на 10 м давление пoнижается примернo на 1 мм рт.ст.).